Regional Weather Roundup
Issued by NWS

Home | Current Version | Previous Version | Text Only | Print | Product List | Glossary On
Versions: 1 2 3 4 5 6 7 8 9 10 11 12 13 14 15 16 17 18 19 20 21 22 23 24 25 26 27 28 29 30 31 32 33 34 35 36 37 38 39 40 41 42 43 44 45 46 47 48 49 50
000
ASUS43 KIND 181910
RWRIN

WEATHER ROUNDUP FOR INDIANA
NATIONAL WEATHER SERVICE INDIANAPOLIS IN
300 PM EDT WED MAY 18 2022

NOTE: "FAIR" INDICATES FEW OR NO CLOUDS BELOW 12,000 FEET WITH NO
SIGNIFICANT WEATHER AND/OR OBSTRUCTIONS TO VISIBILITY.

* - STATION DOES NOT REPORT WEATHER SUCH AS PRECIPITATION OR FOG.

+ - STATION NOT QUALITY CONTROLLED BY THE NATIONAL WEATHER SERVICE.
    USE DATA WITH CAUTION...ESPECIALLY DEWPOINT AND RELATIVE
    HUMIDITY OBSERVATIONS.

INZ001>003-010>013-019-020-182000-
NORTHWEST INDIANA

CITY           SKY/WX    TMP DP  RH WIND       PRES   REMARKS
GARY /AIRPORT/ LGT RAIN  61  59  94 S3        29.78F
KNOX *+        CLOUDY    61  59  94 S7        29.78F
LA PORTE +     CLOUDY    58  58 100 SE5       29.79F FOG
MICHIGAN CITY+ LGT RAIN  59  55  88 SE6       29.78F
MONTICELLO +   DRIZZLE   64  63  95 SW9       29.79S
VALPARAISO     LGT RAIN  59  58  96 SE5       29.78F FOG

$$

LMZ046-743>745-182000-
SOUTHERN LAKE MICHIGAN

STATION/POSITION TIME  TEMP WIND        PRES
                       AIR  DIR/SP/G
                 (UTC) (F)  (DEG/KT/KT) (MB)
BURNS HARBOR     1840   61  160/  6/  8 1008.5F
MICHIGAN CITY    1840   58  150/  9/ 10   N/A

$$

INZ004-005-014>016-021>024-182000-
NORTH CENTRAL INDIANA

CITY           SKY/WX    TMP DP  RH WIND       PRES   REMARKS
GOSHEN         LGT RAIN  60  57  89 SE7       29.79F FOG
LOGANSPORT +   LGT RAIN  63  45  51 S8        29.80F
ROCHESTER +    LGT RAIN  63  61  94 CALM      29.79F
SOUTH BEND     LGT RAIN  59  56  89 E7        29.80F
WARSAW +       LGT RAIN  59  57  94 CALM      29.80F

$$

INZ006>009-017-018-025>027-182000-
NORTHEAST INDIANA

CITY           SKY/WX    TMP DP  RH WIND       PRES   REMARKS
ANGOLA *+      CLOUDY    57  57 100 SE9G15    29.82F FOG
AUBURN +       LGT RAIN  59  57  94 E5        29.83F
FORT WAYNE     LGT RAIN  63  59  87 E3        29.82F
HUNTINGTON +   LGT RAIN  63  61  94 NE3       29.81F
KENDALLVILLE + DRIZZLE   58  58 100 SE9       29.81F

$$

INZ028-029-035-036-043>045-051>053-182000-
WEST CENTRAL INDIANA

CITY           SKY/WX    TMP DP  RH WIND       PRES   REMARKS
CRAWFORDSVL +  DRIZZLE   61  50  67 S7        29.82S
LAFAYETTE      LGT RAIN  64  62  93 S6        29.80S
TERRE HAUTE    LGT RAIN  64  62  93 SE5       29.78F

$$

INZ030>032-037>040-046>048-054>057-064-065-182000-
CENTRAL INDIANA

CITY           SKY/WX    TMP DP  RH WIND       PRES   REMARKS
ANDERSON       CLOUDY    63  57  82 SW3       29.82
COLUMBUS       CLOUDY    68  57  68 S10       29.82R
FISHERS *+     CLOUDY    66  63  90 SW3       29.82S
FRANKFORT +    LGT RAIN  63  61  94 SW7       29.81S FOG
GREENWOOD *+   CLOUDY    67  61  81 W6        29.84R
INDIANAPOLIS   RAIN      63  60  90 SW6       29.82R FOG
-EAGLE CREEK   RAIN      65  60  84 S5        29.82R
KOKOMO +       LGT RAIN  63  32  31 S7        29.81F
MT COMFORT *+  CLOUDY    64  61  88 CALM      29.82S
SHELBYVILLE    LGT RAIN  70  59  68 S5        29.81S
ZIONSVILLE +   RAIN      62  59  90 CALM      29.83S

$$

INZ033-034-041-042-049-050-058-059-182000-
EAST CENTRAL INDIANA

CITY           SKY/WX    TMP DP  RH WIND       PRES   REMARKS
MUNCIE         LGT RAIN  66  58  75 SW6       29.81F

$$

INZ060-061-067>069-081>083-085>088-182000-
SOUTHWEST INDIANA

CITY           SKY/WX    TMP DP  RH WIND       PRES   REMARKS
EVANSVILLE     CLOUDY    70  63  78 SW9       29.80F
HUNTINGBURG *+   N/A     64  63  94 CALM      29.82R
WASHINGTON +   CLOUDY    64  63  99 S13       29.77F

$$

INZ062-063-066-070>080-084-089>092-182000-
SOUTH CENTRAL AND SOUTHEAST INDIANA

CITY           SKY/WX    TMP DP  RH WIND       PRES   REMARKS
BLOOMINGTON    RAIN      64  60  87 S9G16     29.80F FOG
MADISON *+     CLOUDY    72  61  68 S5        29.84R

$$




USA.gov is the U.S. government's official web portal to all federal, state and local government web resources and services.